Simultaneous Nadir Overpasses (SNOs) Predictions

Prediction of SNOs between METOP-A and TERRA Satellite Orbit:

Table of predicted SNOs for the next 14.0 days since TLE Epoch: 6/2/2012
Index Date (METOP-A) Time (METOP-A) METOP-A Lat,Lon Date (TERRA) Time (TERRA) TERRA Lat,Lon Distance(km) Time Diff (sec)
1 06/03/2012 18:30:17 81.30, -50.68 06/03/2012 18:31:06 81.30, -50.72 0.79 49
2 06/03/2012 19:20:57 -81.31, 117.01 06/03/2012 19:20:32 -81.31, 117.20 3.31 25
3 06/06/2012 14:04:39 81.30, 15.76 06/06/2012 14:05:18 81.29, 15.62 2.57 39
4 06/06/2012 14:55:19 -81.31,-176.51 06/06/2012 14:54:44 -81.31,-176.44 1.16 35
5 06/09/2012 09:39:00 81.30, 82.14 06/09/2012 09:39:28 81.30, 82.24 1.71 28
6 06/09/2012 10:29:40 -81.31,-110.07 06/09/2012 10:28:55 -81.30,-110.17 1.94 45
7 06/12/2012 05:13:21 81.31, 148.87 06/12/2012 05:13:39 81.31, 148.78 1.59 18
8 06/12/2012 06:04:02 -81.31, -43.69 06/12/2012 06:03:06 -81.30, -43.61 1.29 56
9 06/15/2012 00:47:43 81.30,-144.84 06/15/2012 00:47:50 81.31,-144.78 0.96 7




NCC Satellite Simultaneous Nadir Overpasses (SNOs) Prediction Service
